#timestamp,LO_Frequency,Hit,StdDev 
1630418415.8,286046998.9,N
1630418435.7,286046998.5,N
1630418455.5,286046998.6,N
1630418475.3,286046999.5,N
1630418495.2,286046998.7,N
1630418515.9,286047000.1,N
1630418535.7,286047002.4,N
1630418555.6,286047000.3,N
1630418575.4,286047002.4,N
1630418595.2,286046999.9,N
1630418615.1,286046998.1,N
1630418616.0,286046998.1,N
1630418635.8,286047000.2,N
1630418655.6,286047000.7,N
1630418675.5,286047000.3,N
1630418695.3,286047000.1,N
1630418715.1,286047000.2,N
1630418735.9,286047000.3,N
1630418755.7,286047000.5,N
1630418775.5,286046998.4,N
1630418795.4,286046999.4,N
1630418815.2,286046999.6,N
1630418835.0,286046997.5,N
1630418835.9,286046997.5,N
1630418855.8,286046997.4,N
1630418875.6,286046996.8,N
1630418895.4,286046999.3,N
1630418915.3,286046999.1,N
1630418935.1,286046996.9,N
1630418936.0,286046996.9,N
1630418955.8,286046995.2,Y
1630418975.7,286046997.2,P
1630418995.5,286046999.2,N
1630419015.3,286046996.9,P
1630419035.2,286046997.8,N
1630419055.9,286046994.9,Y
1630419075.7,286047001.2,P
1630419095.6,286046998.1,N
1630419115.4,286047001.0,N
1630419135.2,286046999.8,N
1630419155.1,286047000.4,N
1630419156.0,286047000.4,N
1630419175.8,286047001.2,N
1630419195.6,286046998.1,N
1630419215.5,286047000.3,N
1630419235.3,286047000.9,N
1630419255.1,286047002.8,N
1630419275.9,286047002.3,N
1630419295.7,286047002.2,N
1630419315.5,286047004.0,N
1630419335.4,286047004.4,N
1630419355.2,286047003.5,N
1630419375.0,286047002.2,N
1630419375.9,286047002.2,N
1630419395.8,286047001.9,N
1630419415.6,286047004.2,N
1630419435.4,286047004.4,N
1630419455.3,286047004.0,N
1630419475.1,286047002.3,N
1630419476.0,286047002.3,N
1630419495.8,286047002.3,N
1630419515.7,286047001.7,N
1630419535.5,286047002.1,N
1630419555.3,286047001.7,N
1630419575.2,286047004.4,N
1630419595.9,286047003.6,N
1630419615.7,286047004.2,N
1630419635.6,286047003.9,N
1630419655.4,286047001.7,N
1630419675.2,286047003.2,N
1630419695.1,286047004.2,N
1630419696.0,286047004.2,N
1630419715.8,286047003.3,N
1630419735.6,286047005.4,Y
1630419755.5,286047004.3,P
1630419775.3,286047005.8,P
1630419795.1,286047005.3,P
1630419815.9,286047005.7,Y
1630419835.7,286047000.8,P
1630419855.5,286047000.8,N
1630419875.4,286046998.1,N
1630419895.2,286047000.4,N
1630419915.0,286047000.8,N
1630419915.9,286047000.8,N
1630419935.8,286047002.7,N
1630419955.6,286047000.0,N
1630419975.4,286046999.7,N
1630419995.3,286046999.8,N
1630420015.1,286046999.8,N
1630420016.0,286046999.8,N
1630420035.8,286047000.1,N
1630420055.7,286047000.6,N
1630420075.5,286047000.1,N
1630420095.3,286047000.2,N
1630420115.2,286047002.3,N
1630420135.9,286047000.2,N
1630420155.7,286047000.2,N
1630420175.6,286046999.9,N
1630420195.4,286047000.6,N
1630420215.2,286047000.0,N
1630420235.1,286047002.4,N
1630420236.0,286047002.4,N
1630420255.8,286046999.7,N
1630420275.6,286047002.5,N
1630420295.5,286047002.2,N
1630420315.3,286047002.5,N
1630420335.1,286047001.7,N
1630420355.9,286047005.6,Y
1630420375.7,286047005.8,P
1630420395.5,286047005.9,N
1630420415.4,286047004.0,N
1630420435.2,286047002.5,N
1630420455.0,286047001.7,N
1630420455.9,286047001.7,N
1630420475.8,286047001.6,N
1630420495.6,286047004.4,N
1630420515.4,286047001.5,N
1630420535.3,286047002.1,N
1630420555.1,286047001.5,N
1630420556.0,286047001.5,N
1630420575.8,286047004.1,N
1630420595.7,286047005.6,Y
1630420615.5,286047003.7,P
1630420635.3,286047007.3,P
1630420655.2,286047007.3,P
1630420675.9,286047008.9,Y
1630420695.7,286047001.4,P
1630420715.6,286047002.9,N
1630420735.4,286047003.4,N
1630420755.2,286047004.4,Y
1630420775.1,286046996.9,P
1630420776.0,286046996.9,N
1630420795.8,286047000.1,N
1630420815.6,286047004.4,N
1630420835.5,286047002.5,N
1630420855.3,286046998.4,N
1630420875.1,286047002.5,N
1630420895.9,286047003.8,N
1630420915.7,286047005.1,N
1630420935.5,286047004.6,N
1630420955.4,286047006.9,N
1630420975.2,286047007.0,N
1630420995.0,286047007.3,N
1630420995.9,286047007.3,N
1630421015.8,286047003.3,N
1630421035.6,286046999.1,N
1630421055.4,286046997.6,N
1630421075.3,286046997.1,N
1630421095.1,286046997.4,N
1630421096.0,286046997.4,N
1630421115.8,286046995.2,N
1630421135.7,286046995.6,N
1630421155.5,286046993.5,N
1630421175.3,286046992.6,N
1630421195.2,286046991.2,N
1630421215.9,286046988.5,N
1630421235.7,286046990.7,N
1630421255.6,286046991.4,N
1630421275.4,286046991.5,N
1630421295.2,286046993.2,N
1630421315.0,286046992.9,N
1630421316.0,286046992.9,N
1630421335.8,286046990.4,N
1630421355.6,286046991.4,N
1630421375.5,286046990.4,N
1630421395.3,286046992.5,N
1630421415.1,286046993.0,N
1630421435.8,286046991.0,N
1630421455.7,286046991.1,N
1630421475.5,286046990.7,N
1630421495.3,286046990.3,N
1630421515.2,286046990.3,N
1630421535.0,286046989.0,N
1630421535.9,286046989.0,N
1630421555.8,286046988.9,Y
1630421575.6,286046997.6,P
1630421595.4,286046998.0,N
1630421615.2,286046995.3,N
1630421635.1,286046995.4,N
1630421636.0,286046995.4,N
1630421655.8,286046995.3,N
1630421675.7,286046995.5,N
1630421695.5,286046995.9,N
1630421715.3,286046997.7,N
1630421735.1,286046998.0,N
1630421755.9,286046996.1,N
1630421775.7,286046996.2,N
1630421795.5,286046996.0,N
1630421815.4,286046993.7,Y
1630421835.2,286046999.3,P
1630421855.0,286046998.2,N
1630421856.0,286046998.2,N
1630421875.8,286046999.0,N
1630421895.6,286046998.9,N
1630421915.4,286046999.2,N
1630421935.3,286046996.9,Y
1630421955.1,286046998.1,P
1630421975.9,286047000.8,P
1630421995.7,286046998.3,N
